GFSNW_prec_precacc12_132.txt.gz
Total_Precipitation_Accumulation
0.03 0.01 0.00 0.00 0.00 0.00 0.00 0.00 0.00 0.00 0.00 0.00 0.00 0.00 0.00 0.00 0.00 0.00 0.00 0.00 0.00 0.00 0.00 0.00 0.00 0.00 0.00 0.00 0.00 0.00 0.00 0.02 0.01 0.00 0.00 0.03 0.09 0.23 0.48 0.68 0.47 0.24 0.13 0.06
0.01 0.00 0.00 0.00 0.00 0.00 0.00 0.00 0.00 0.00 0.00 0.00 0.00 0.00 0.00 0.00 0.00 0.00 0.00 0.00 0.00 0.00 0.00 0.01 0.00 0.00 0.00 0.00 0.00 0.02 0.06 0.10 0.12 0.02 0.06 0.12 0.11 0.07 0.15 0.33 0.40 0.29 0.35 0.13
0.00 0.00 0.01 0.00 0.00 0.00 0.00 0.00 0.00 0.00 0.00 0.00 0.00 0.00 0.00 0.00 0.00 0.00 0.00 0.00 0.00 0.03 0.03 0.04 0.04 0.05 0.01 0.01 0.01 0.02 0.08 0.03 0.06 0.05 0.05 0.13 0.06 0.02 0.01 0.04 0.06 0.08 0.17 0.15
0.00 0.01 0.00 0.00 0.00 0.00 0.00 0.01 0.00 0.00 0.00 0.00 0.00 0.00 0.00 0.00 0.00 0.00 0.00 0.01 0.05 0.05 0.05 0.05 0.06 0.05 0.03 0.01 0.01 0.03 0.10 0.11 0.04 0.01 0.00 0.00 0.01 0.00 0.00 0.01 0.01 0.01 0.01 0.16
0.01 0.00 0.00 0.00 0.00 0.00 0.00 0.00 0.00 0.00 0.00 0.00 0.00 0.00 0.00 0.00 0.00 0.00 0.01 0.02 0.02 0.04 0.07 0.09 0.03 0.02 0.03 0.06 0.06 0.09 0.09 0.22 0.14 0.07 0.00 0.00 0.00 0.00 0.00 0.01 0.01 0.00 0.00 0.01
0.01 0.00 0.00 0.00 0.00 0.00 0.00 0.00 0.00 0.00 0.00 0.00 0.00 0.00 0.00 0.00 0.00 0.01 0.00 0.01 0.02 0.02 0.02 0.00 0.00 0.00 0.01 0.01 0.05 0.14 0.15 0.10 0.09 0.06 0.00 0.00 0.01 0.01 0.02 0.08 0.03 0.01 0.02 0.03
0.00 0.00 0.00 0.00 0.00 0.00 0.00 0.00 0.00 0.00 0.00 0.00 0.00 0.00 0.00 0.00 0.00 0.00 0.00 0.00 0.00 0.00 0.00 0.00 0.00 0.00 0.02 0.03 0.11 0.20 0.12 0.08 0.07 0.06 0.05 0.06 0.09 0.04 0.03 0.11 0.05 0.03 0.04 0.03
0.00 0.00 0.00 0.00 0.00 0.00 0.00 0.00 0.00 0.00 0.00 0.00 0.00 0.00 0.00 0.00 0.00 0.00 0.00 0.00 0.00 0.00 0.00 0.01 0.02 0.03 0.05 0.06 0.06 0.01 0.02 0.05 0.08 0.05 0.04 0.04 0.05 0.06 0.05 0.08 0.10 0.07 0.07 0.02
0.00 0.00 0.00 0.00 0.00 0.00 0.00 0.00 0.00 0.00 0.00 0.00 0.00 0.00 0.00 0.00 0.00 0.00 0.00 0.00 0.00 0.00 0.00 0.04 0.08 0.12 0.05 0.05 0.02 0.02 0.03 0.07 0.27 0.11 0.15 0.12 0.15 0.11 0.03 0.05 0.19 0.39 0.11 0.02
0.00 0.00 0.00 0.00 0.00 0.00 0.00 0.00 0.00 0.00 0.00 0.00 0.00 0.00 0.00 0.00 0.00 0.00 0.00 0.00 0.00 0.00 0.00 0.03 0.06 0.05 0.02 0.03 0.04 0.03 0.02 0.09 0.31 0.21 0.37 0.36 0.16 0.01 0.01 0.15 0.44 0.34 0.09 0.13
0.00 0.00 0.00 0.00 0.00 0.00 0.00 0.00 0.00 0.00 0.01 0.00 0.00 0.00 0.00 0.00 0.00 0.00 0.01 0.01 0.01 0.00 0.01 0.04 0.04 0.04 0.04 0.04 0.05 0.09 0.15 0.09 0.15 0.24 0.31 0.48 0.13 0.05 0.25 0.34 0.17 0.22 0.32 0.70
0.01 0.00 0.00 0.00 0.00 0.00 0.00 0.01 0.00 0.01 0.01 0.00 0.00 0.00 0.00 0.00 0.00 0.00 0.00 0.00 0.00 0.00 0.02 0.05 0.05 0.06 0.03 0.03 0.06 0.07 0.12 0.25 0.40 0.40 0.45 0.39 0.24 0.27 0.30 0.30 0.32 0.37 0.49 0.58
0.01 0.00 0.00 0.00 0.00 0.00 0.01 0.02 0.00 0.01 0.01 0.00 0.00 0.00 0.00 0.00 0.00 0.00 0.00 0.00 0.00 0.00 0.04 0.06 0.05 0.02 0.01 0.02 0.04 0.05 0.06 0.13 0.22 0.39 0.36 0.15 0.31 0.19 0.22 0.31 0.32 0.21 0.18 0.07
0.01 0.00 0.01 0.00 0.00 0.01 0.01 0.06 0.02 0.01 0.02 0.01 0.00 0.00 0.00 0.00 0.00 0.00 0.00 0.00 0.00 0.00 0.01 0.04 0.03 0.02 0.01 0.01 0.01 0.02 0.12 0.09 0.02 0.16 0.13 0.12 0.15 0.18 0.24 0.23 0.18 0.17 0.08 0.01
0.00 0.00 0.01 0.00 0.00 0.02 0.05 0.08 0.05 0.02 0.04 0.05 0.00 0.00 0.00 0.00 0.00 0.00 0.00 0.00 0.00 0.01 0.02 0.03 0.02 0.01 0.01 0.01 0.01 0.19 0.05 0.03 0.06 0.07 0.12 0.14 0.11 0.07 0.07 0.06 0.03 0.01 0.01 0.00
0.00 0.00 0.01 0.00 0.01 0.05 0.07 0.02 0.02 0.00 0.02 0.03 0.01 0.00 0.00 0.00 0.00 0.00 0.00 0.00 0.00 0.01 0.02 0.02 0.01 0.00 0.04 0.04 0.03 0.06 0.00 0.02 0.02 0.02 0.00 0.05 0.03 0.00 0.00 0.00 0.00 0.00 0.00 0.00
0.01 0.01 0.02 0.03 0.02 0.05 0.05 0.04 0.03 0.00 0.03 0.04 0.02 0.00 0.00 0.00 0.00 0.00 0.00 0.00 0.01 0.01 0.03 0.01 0.00 0.01 0.06 0.04 0.02 0.05 0.00 0.00 0.00 0.00 0.00 0.00 0.00 0.00 0.00 0.00 0.00 0.00 0.00 0.00
0.02 0.02 0.04 0.04 0.04 0.06 0.04 0.03 0.00 0.01 0.03 0.03 0.01 0.00 0.01 0.00 0.04 0.05 0.01 0.00 0.00 0.01 0.01 0.01 0.02 0.05 0.08 0.06 0.02 0.00 0.00 0.00 0.00 0.00 0.00 0.00 0.00 0.00 0.00 0.00 0.00 0.00 0.00 0.00
0.03 0.05 0.06 0.07 0.07 0.06 0.07 0.02 0.00 0.03 0.05 0.06 0.01 0.01 0.05 0.02 0.10 0.23 0.19 0.04 0.04 0.03 0.03 0.01 0.04 0.07 0.12 0.03 0.01 0.00 0.00 0.00 0.00 0.00 0.00 0.00 0.00 0.00 0.00 0.00 0.00 0.00 0.00 0.00
0.05 0.07 0.06 0.06 0.02 0.03 0.02 0.04 0.05 0.05 0.04 0.04 0.02 0.00 0.01 0.01 0.10 0.21 0.05 0.04 0.05 0.13 0.03 0.03 0.05 0.06 0.02 0.00 0.00 0.00 0.00 0.00 0.00 0.00 0.00 0.00 0.00 0.00 0.00 0.00 0.00 0.00 0.00 0.00
0.09 0.06 0.07 0.07 0.02 0.05 0.10 0.07 0.05 0.04 0.03 0.01 0.00 0.00 0.00 0.00 0.01 0.05 0.05 0.07 0.09 0.11 0.14 0.12 0.14 0.13 0.02 0.00 0.00 0.00 0.00 0.00 0.00 0.00 0.00 0.00 0.00 0.00 0.00 0.00 0.00 0.00 0.00 0.01
0.04 0.04 0.05 0.07 0.08 0.07 0.06 0.07 0.04 0.03 0.01 0.00 0.00 0.00 0.00 0.01 0.01 0.02 0.04 0.04 0.06 0.09 0.10 0.23 0.29 0.07 0.01 0.00 0.00 0.00 0.00 0.00 0.00 0.00 0.00 0.00 0.00 0.00 0.00 0.00 0.00 0.00 0.01 0.01
0.10 0.09 0.05 0.10 0.06 0.09 0.03 0.02 0.03 0.01 0.00 0.01 0.00 0.00 0.01 0.02 0.02 0.02 0.03 0.03 0.05 0.07 0.10 0.06 0.03 0.00 0.00 0.00 0.00 0.00 0.00 0.00 0.00 0.00 0.00 0.00 0.00 0.00 0.00 0.00 0.00 0.00 0.00 0.01
0.09 0.16 0.10 0.10 0.10 0.01 0.00 0.00 0.00 0.00 0.00 0.02 0.01 0.00 0.01 0.02 0.02 0.03 0.03 0.03 0.03 0.05 0.03 0.05 0.00 0.00 0.00 0.00 0.00 0.00 0.00 0.00 0.00 0.00 0.00 0.00 0.00 0.00 0.00 0.00 0.00 0.00 0.01 0.01
0.09 0.15 0.15 0.02 0.03 0.05 0.04 0.04 0.02 0.01 0.03 0.04 0.01 0.01 0.03 0.07 0.05 0.02 0.04 0.07 0.04 0.05 0.06 0.03 0.01 0.00 0.00 0.00 0.00 0.00 0.00 0.00 0.00 0.00 0.00 0.00 0.00 0.00 0.00 0.00 0.00 0.00 0.01 0.01
0.08 0.11 0.16 0.08 0.04 0.03 0.01 0.01 0.03 0.03 0.09 0.13 0.13 0.08 0.03 0.06 0.05 0.09 0.05 0.06 0.08 0.08 0.04 0.01 0.00 0.00 0.00 0.00 0.00 0.00 0.00 0.00 0.00 0.00 0.00 0.00 0.00 0.00 0.00 0.01 0.02 0.00 0.01 0.00
0.05 0.04 0.05 0.07 0.06 0.05 0.01 0.01 0.01 0.00 0.06 0.13 0.18 0.12 0.05 0.09 0.11 0.07 0.06 0.06 0.04 0.05 0.06 0.03 0.01 0.00 0.00 0.00 0.01 0.00 0.00 0.00 0.00 0.00 0.00 0.01 0.01 0.00 0.01 0.01 0.01 0.00 0.02 0.01

GFSNW_prec_precacc12_135.txt.gz
Total_Precipitation_Accumulation
0.06 0.04 0.02 0.01 0.00 0.00 0.00 0.00 0.00 0.00 0.00 0.00 0.00 0.00 0.00 0.00 0.00 0.00 0.00 0.00 0.00 0.00 0.00 0.00 0.00 0.00 0.00 0.00 0.00 0.00 0.00 0.02 0.01 0.00 0.00 0.03 0.08 0.17 0.30 0.57 0.46 0.32 0.27 0.10
0.04 0.03 0.03 0.02 0.00 0.00 0.00 0.00 0.00 0.00 0.00 0.00 0.00 0.00 0.00 0.00 0.00 0.00 0.00 0.00 0.00 0.00 0.00 0.01 0.00 0.00 0.00 0.00 0.00 0.01 0.05 0.08 0.10 0.01 0.05 0.09 0.09 0.07 0.10 0.27 0.32 0.22 0.36 0.11
0.03 0.02 0.02 0.01 0.00 0.00 0.00 0.00 0.00 0.00 0.00 0.00 0.00 0.00 0.00 0.00 0.00 0.00 0.00 0.00 0.00 0.00 0.01 0.01 0.02 0.04 0.01 0.01 0.01 0.01 0.06 0.02 0.04 0.04 0.03 0.08 0.05 0.01 0.01 0.05 0.06 0.04 0.11 0.11
0.03 0.02 0.01 0.00 0.00 0.00 0.00 0.01 0.01 0.00 0.00 0.00 0.00 0.00 0.00 0.00 0.00 0.00 0.00 0.00 0.01 0.01 0.01 0.01 0.02 0.01 0.01 0.00 0.01 0.03 0.09 0.08 0.03 0.01 0.00 0.00 0.01 0.00 0.00 0.01 0.01 0.01 0.01 0.15
0.02 0.00 0.00 0.00 0.00 0.00 0.00 0.00 0.00 0.00 0.00 0.00 0.00 0.00 0.00 0.00 0.00 0.00 0.00 0.00 0.00 0.01 0.03 0.02 0.00 0.00 0.00 0.00 0.02 0.06 0.08 0.18 0.12 0.06 0.00 0.00 0.00 0.00 0.00 0.01 0.02 0.02 0.01 0.01
0.01 0.00 0.00 0.00 0.00 0.00 0.00 0.00 0.00 0.00 0.00 0.00 0.00 0.00 0.00 0.00 0.00 0.00 0.00 0.00 0.00 0.01 0.01 0.00 0.00 0.00 0.00 0.00 0.02 0.09 0.09 0.05 0.05 0.03 0.00 0.00 0.04 0.02 0.03 0.14 0.20 0.05 0.05 0.07
0.00 0.00 0.00 0.00 0.00 0.00 0.00 0.00 0.00 0.00 0.00 0.00 0.00 0.00 0.00 0.00 0.00 0.00 0.00 0.00 0.00 0.00 0.00 0.00 0.00 0.00 0.01 0.02 0.10 0.16 0.07 0.03 0.04 0.02 0.02 0.04 0.11 0.04 0.04 0.17 0.11 0.04 0.06 0.04
0.00 0.00 0.00 0.00 0.00 0.00 0.00 0.00 0.00 0.00 0.00 0.00 0.00 0.00 0.00 0.00 0.00 0.00 0.00 0.00 0.00 0.00 0.00 0.00 0.01 0.02 0.04 0.06 0.06 0.00 0.00 0.03 0.06 0.03 0.02 0.03 0.05 0.06 0.05 0.09 0.11 0.08 0.08 0.03
0.00 0.00 0.00 0.00 0.00 0.00 0.00 0.00 0.00 0.00 0.00 0.00 0.00 0.00 0.00 0.00 0.00 0.00 0.00 0.00 0.00 0.00 0.00 0.01 0.03 0.08 0.03 0.03 0.00 0.00 0.00 0.04 0.25 0.09 0.11 0.11 0.14 0.11 0.03 0.05 0.19 0.37 0.12 0.02
0.00 0.00 0.00 0.00 0.00 0.00 0.00 0.00 0.00 0.00 0.00 0.00 0.00 0.00 0.00 0.00 0.00 0.00 0.00 0.00 0.00 0.00 0.00 0.01 0.03 0.02 0.01 0.01 0.00 0.01 0.00 0.01 0.21 0.16 0.29 0.33 0.13 0.01 0.01 0.13 0.37 0.30 0.10 0.09
0.00 0.00 0.00 0.00 0.00 0.00 0.00 0.00 0.00 0.00 0.00 0.00 0.00 0.00 0.00 0.00 0.00 0.00 0.01 0.01 0.01 0.00 0.00 0.02 0.02 0.03 0.02 0.02 0.02 0.05 0.08 0.03 0.04 0.12 0.19 0.29 0.09 0.04 0.17 0.31 0.16 0.18 0.21 0.38
0.00 0.00 0.00 0.00 0.00 0.00 0.00 0.01 0.00 0.00 0.00 0.00 0.00 0.00 0.00 0.00 0.00 0.00 0.00 0.00 0.00 0.00 0.01 0.02 0.02 0.02 0.02 0.01 0.03 0.03 0.04 0.13 0.20 0.26 0.30 0.28 0.22 0.26 0.31 0.31 0.29 0.29 0.36 0.36
0.00 0.00 0.00 0.00 0.00 0.00 0.00 0.00 0.00 0.00 0.00 0.00 0.00 0.00 0.00 0.00 0.00 0.00 0.00 0.00 0.00 0.00 0.01 0.01 0.02 0.01 0.00 0.01 0.02 0.02 0.02 0.08 0.06 0.19 0.21 0.06 0.25 0.16 0.18 0.23 0.27 0.19 0.11 0.04
0.00 0.00 0.00 0.00 0.00 0.00 0.00 0.03 0.01 0.00 0.01 0.00 0.00 0.00 0.00 0.00 0.00 0.00 0.00 0.00 0.00 0.00 0.00 0.01 0.01 0.01 0.00 0.00 0.00 0.01 0.07 0.06 0.01 0.07 0.06 0.05 0.11 0.08 0.08 0.10 0.09 0.06 0.03 0.01
0.00 0.00 0.00 0.00 0.00 0.00 0.01 0.04 0.04 0.02 0.02 0.03 0.00 0.00 0.00 0.00 0.00 0.00 0.00 0.00 0.00 0.00 0.01 0.01 0.01 0.00 0.00 0.00 0.01 0.11 0.02 0.01 0.03 0.03 0.08 0.09 0.08 0.02 0.00 0.00 0.00 0.00 0.00 0.00
0.00 0.00 0.00 0.00 0.00 0.02 0.03 0.01 0.01 0.00 0.00 0.00 0.00 0.00 0.00 0.00 0.00 0.00 0.00 0.00 0.00 0.01 0.01 0.01 0.00 0.00 0.02 0.03 0.01 0.03 0.00 0.00 0.00 0.00 0.00 0.04 0.02 0.00 0.00 0.00 0.00 0.00 0.00 0.00
0.00 0.00 0.01 0.01 0.01 0.03 0.03 0.02 0.02 0.00 0.00 0.02 0.01 0.00 0.00 0.00 0.00 0.00 0.00 0.00 0.00 0.01 0.02 0.01 0.00 0.00 0.02 0.02 0.01 0.04 0.00 0.00 0.00 0.00 0.00 0.00 0.00 0.00 0.00 0.00 0.00 0.00 0.00 0.00
0.01 0.01 0.03 0.02 0.02 0.03 0.03 0.02 0.00 0.00 0.01 0.02 0.01 0.00 0.00 0.00 0.01 0.02 0.00 0.00 0.00 0.00 0.00 0.00 0.01 0.02 0.05 0.04 0.01 0.00 0.00 0.00 0.00 0.00 0.00 0.00 0.00 0.00 0.00 0.00 0.00 0.00 0.00 0.00
0.02 0.03 0.04 0.04 0.04 0.04 0.05 0.01 0.00 0.01 0.02 0.02 0.01 0.00 0.04 0.02 0.06 0.18 0.16 0.01 0.02 0.01 0.01 0.00 0.01 0.03 0.08 0.02 0.01 0.00 0.00 0.00 0.00 0.00 0.00 0.00 0.00 0.00 0.00 0.00 0.00 0.00 0.00 0.00
0.03 0.03 0.03 0.04 0.02 0.02 0.01 0.01 0.01 0.01 0.02 0.01 0.01 0.00 0.01 0.01 0.08 0.19 0.04 0.01 0.01 0.09 0.02 0.02 0.03 0.04 0.02 0.00 0.00 0.00 0.00 0.00 0.00 0.00 0.00 0.00 0.00 0.00 0.00 0.00 0.00 0.00 0.00 0.00
0.03 0.03 0.05 0.04 0.01 0.01 0.04 0.02 0.02 0.02 0.01 0.00 0.00 0.00 0.00 0.00 0.01 0.04 0.04 0.05 0.05 0.06 0.09 0.11 0.10 0.09 0.01 0.00 0.00 0.00 0.00 0.00 0.00 0.00 0.00 0.00 0.00 0.00 0.00 0.00 0.00 0.00 0.00 0.01
0.02 0.03 0.03 0.04 0.04 0.03 0.03 0.04 0.01 0.02 0.00 0.00 0.00 0.00 0.00 0.01 0.00 0.01 0.02 0.02 0.03 0.04 0.09 0.24 0.29 0.10 0.02 0.00 0.00 0.00 0.00 0.00 0.00 0.00 0.00 0.00 0.00 0.00 0.00 0.00 0.00 0.00 0.00 0.00
0.09 0.06 0.01 0.03 0.03 0.04 0.02 0.01 0.02 0.00 0.00 0.01 0.00 0.00 0.00 0.02 0.02 0.02 0.01 0.01 0.02 0.06 0.10 0.05 0.02 0.00 0.00 0.00 0.00 0.00 0.00 0.00 0.00 0.00 0.00 0.00 0.00 0.00 0.00 0.00 0.00 0.00 0.00 0.00
0.05 0.02 0.05 0.05 0.05 0.00 0.00 0.00 0.00 0.00 0.00 0.02 0.00 0.00 0.01 0.01 0.01 0.02 0.01 0.01 0.02 0.03 0.02 0.04 0.00 0.00 0.00 0.00 0.00 0.00 0.00 0.00 0.00 0.00 0.00 0.00 0.00 0.00 0.00 0.00 0.00 0.00 0.00 0.00
0.03 0.03 0.07 0.01 0.02 0.05 0.04 0.04 0.02 0.01 0.03 0.04 0.01 0.01 0.02 0.05 0.02 0.01 0.02 0.04 0.03 0.03 0.04 0.02 0.00 0.00 0.00 0.00 0.00 0.00 0.00 0.00 0.00 0.00 0.00 0.00 0.00 0.00 0.00 0.00 0.00 0.00 0.00 0.00
0.02 0.04 0.09 0.06 0.04 0.02 0.00 0.01 0.03 0.03 0.08 0.11 0.09 0.05 0.01 0.03 0.02 0.05 0.03 0.05 0.06 0.07 0.04 0.03 0.03 0.01 0.00 0.00 0.00 0.00 0.00 0.00 0.00 0.00 0.00 0.00 0.00 0.00 0.00 0.01 0.01 0.00 0.00 0.00
0.01 0.03 0.05 0.07 0.06 0.04 0.01 0.01 0.01 0.00 0.06 0.11 0.16 0.10 0.02 0.07 0.09 0.06 0.06 0.06 0.03 0.05 0.07 0.07 0.05 0.01 0.00 0.00 0.01 0.00 0.00 0.00 0.00 0.00 0.00 0.01 0.01 0.00 0.01 0.01 0.01 0.00 0.01 0.01

GFSNW_prec_precacc12_138.txt.gz
Total_Precipitation_Accumulation
0.19 0.15 0.13 0.03 0.01 0.01 0.01 0.01 0.01 0.00 0.00 0.00 0.00 0.00 0.00 0.00 0.00 0.00 0.00 0.00 0.00 0.00 0.00 0.00 0.00 0.00 0.00 0.00 0.00 0.00 0.00 0.00 0.00 0.00 0.00 0.02 0.05 0.09 0.19 0.38 0.37 0.33 0.32 0.12
0.14 0.16 0.14 0.02 0.01 0.00 0.00 0.01 0.00 0.00 0.00 0.00 0.00 0.00 0.00 0.00 0.00 0.00 0.00 0.00 0.00 0.00 0.00 0.00 0.00 0.00 0.00 0.00 0.00 0.01 0.02 0.03 0.06 0.00 0.04 0.04 0.04 0.03 0.07 0.20 0.26 0.15 0.25 0.09
0.09 0.12 0.11 0.03 0.01 0.00 0.00 0.01 0.02 0.00 0.00 0.00 0.00 0.00 0.00 0.00 0.00 0.00 0.00 0.00 0.00 0.00 0.00 0.00 0.00 0.00 0.00 0.00 0.00 0.00 0.04 0.01 0.02 0.03 0.01 0.03 0.04 0.00 0.00 0.04 0.04 0.02 0.03 0.01
0.07 0.09 0.10 0.02 0.01 0.00 0.00 0.01 0.01 0.00 0.00 0.00 0.00 0.00 0.00 0.00 0.00 0.00 0.00 0.00 0.00 0.00 0.00 0.00 0.00 0.00 0.00 0.00 0.00 0.00 0.05 0.07 0.01 0.00 0.00 0.00 0.01 0.00 0.00 0.00 0.01 0.02 0.01 0.02
0.08 0.06 0.04 0.01 0.00 0.00 0.00 0.00 0.00 0.00 0.01 0.01 0.00 0.00 0.00 0.00 0.00 0.00 0.00 0.00 0.00 0.00 0.00 0.00 0.00 0.00 0.00 0.00 0.00 0.00 0.03 0.08 0.04 0.04 0.00 0.00 0.00 0.00 0.00 0.01 0.02 0.03 0.03 0.03
0.09 0.05 0.02 0.01 0.00 0.00 0.00 0.00 0.00 0.00 0.00 0.01 0.01 0.00 0.00 0.00 0.00 0.00 0.00 0.00 0.00 0.00 0.00 0.00 0.00 0.00 0.00 0.00 0.01 0.07 0.07 0.03 0.01 0.01 0.00 0.00 0.04 0.02 0.03 0.15 0.24 0.18 0.11 0.08
0.06 0.07 0.03 0.00 0.00 0.00 0.00 0.00 0.00 0.00 0.00 0.00 0.00 0.00 0.00 0.00 0.00 0.00 0.00 0.00 0.00 0.00 0.00 0.00 0.00 0.00 0.01 0.01 0.07 0.14 0.04 0.00 0.01 0.00 0.00 0.01 0.11 0.04 0.04 0.19 0.13 0.05 0.07 0.04
0.03 0.03 0.01 0.00 0.00 0.00 0.00 0.00 0.00 0.00 0.00 0.00 0.00 0.00 0.00 0.00 0.00 0.00 0.00 0.00 0.00 0.00 0.00 0.00 0.00 0.01 0.02 0.04 0.01 0.00 0.00 0.00 0.04 0.02 0.01 0.02 0.04 0.04 0.04 0.10 0.15 0.07 0.07 0.03
0.00 0.00 0.00 0.00 0.00 0.00 0.00 0.00 0.00 0.00 0.00 0.00 0.00 0.00 0.00 0.00 0.00 0.00 0.00 0.00 0.00 0.00 0.00 0.00 0.00 0.03 0.01 0.01 0.00 0.00 0.00 0.01 0.12 0.07 0.06 0.08 0.07 0.04 0.02 0.07 0.16 0.25 0.10 0.03
0.00 0.00 0.00 0.00 0.00 0.00 0.00 0.00 0.00 0.00 0.00 0.00 0.00 0.00 0.00 0.00 0.00 0.00 0.00 0.00 0.00 0.00 0.00 0.00 0.00 0.01 0.00 0.00 0.00 0.00 0.00 0.00 0.03 0.09 0.21 0.24 0.04 0.00 0.00 0.06 0.18 0.16 0.10 0.11
0.00 0.00 0.00 0.00 0.00 0.00 0.00 0.00 0.00 0.00 0.00 0.00 0.00 0.00 0.00 0.00 0.00 0.00 0.00 0.00 0.00 0.00 0.00 0.00 0.00 0.00 0.00 0.00 0.00 0.01 0.02 0.01 0.01 0.03 0.02 0.06 0.02 0.02 0.08 0.13 0.14 0.21 0.22 0.33
0.00 0.00 0.00 0.00 0.00 0.00 0.00 0.00 0.00 0.00 0.00 0.00 0.00 0.00 0.00 0.00 0.00 0.00 0.00 0.00 0.00 0.00 0.00 0.00 0.00 0.00 0.00 0.00 0.01 0.01 0.01 0.06 0.07 0.10 0.15 0.12 0.09 0.14 0.19 0.25 0.26 0.28 0.27 0.23
0.00 0.00 0.00 0.00 0.00 0.00 0.00 0.00 0.00 0.00 0.00 0.00 0.00 0.00 0.00 0.00 0.00 0.00 0.00 0.00 0.00 0.00 0.00 0.00 0.00 0.00 0.00 0.00 0.00 0.00 0.01 0.01 0.01 0.10 0.15 0.03 0.15 0.10 0.10 0.12 0.14 0.09 0.04 0.02
0.00 0.00 0.00 0.00 0.00 0.00 0.00 0.01 0.00 0.00 0.00 0.00 0.00 0.00 0.00 0.00 0.00 0.00 0.00 0.00 0.00 0.00 0.00 0.00 0.00 0.00 0.00 0.00 0.00 0.00 0.02 0.02 0.00 0.01 0.04 0.04 0.09 0.06 0.03 0.01 0.02 0.01 0.00 0.00
0.00 0.00 0.00 0.00 0.00 0.00 0.00 0.01 0.01 0.00 0.00 0.01 0.00 0.00 0.00 0.00 0.00 0.00 0.00 0.00 0.00 0.00 0.00 0.00 0.00 0.00 0.00 0.00 0.00 0.04 0.00 0.00 0.00 0.02 0.05 0.06 0.06 0.01 0.00 0.00 0.00 0.00 0.00 0.00
0.00 0.00 0.00 0.00 0.00 0.00 0.00 0.00 0.00 0.00 0.00 0.00 0.00 0.00 0.00 0.00 0.00 0.00 0.00 0.00 0.00 0.00 0.00 0.00 0.00 0.00 0.00 0.01 0.00 0.00 0.00 0.00 0.00 0.00 0.00 0.03 0.01 0.00 0.00 0.00 0.00 0.00 0.00 0.00
0.00 0.00 0.00 0.01 0.00 0.00 0.00 0.00 0.00 0.00 0.00 0.00 0.00 0.00 0.00 0.00 0.00 0.00 0.00 0.00 0.00 0.00 0.01 0.00 0.00 0.00 0.00 0.01 0.00 0.00 0.00 0.00 0.00 0.00 0.00 0.00 0.00 0.00 0.00 0.00 0.00 0.00 0.00 0.00
0.00 0.01 0.02 0.01 0.01 0.01 0.01 0.00 0.00 0.00 0.00 0.00 0.00 0.00 0.00 0.00 0.00 0.00 0.00 0.00 0.00 0.00 0.00 0.00 0.00 0.01 0.02 0.02 0.01 0.00 0.00 0.00 0.00 0.00 0.00 0.00 0.00 0.00 0.00 0.00 0.00 0.00 0.00 0.00
0.01 0.02 0.02 0.01 0.00 0.01 0.01 0.00 0.00 0.00 0.00 0.00 0.00 0.00 0.01 0.00 0.01 0.08 0.11 0.00 0.00 0.00 0.00 0.00 0.00 0.01 0.04 0.01 0.01 0.00 0.00 0.00 0.00 0.00 0.00 0.00 0.00 0.00 0.00 0.00 0.00 0.00 0.00 0.00
0.01 0.00 0.00 0.00 0.00 0.00 0.00 0.00 0.00 0.00 0.00 0.00 0.00 0.00 0.00 0.00 0.02 0.13 0.02 0.00 0.00 0.03 0.01 0.00 0.01 0.02 0.01 0.00 0.00 0.00 0.00 0.00 0.00 0.00 0.00 0.00 0.00 0.00 0.00 0.00 0.00 0.00 0.00 0.00
0.00 0.00 0.02 0.01 0.00 0.00 0.01 0.00 0.00 0.00 0.00 0.00 0.00 0.00 0.00 0.00 0.00 0.02 0.02 0.02 0.02 0.03 0.03 0.07 0.06 0.05 0.01 0.00 0.00 0.00 0.00 0.00 0.00 0.00 0.00 0.00 0.00 0.00 0.00 0.00 0.00 0.00 0.00 0.00
0.00 0.01 0.01 0.01 0.01 0.00 0.00 0.01 0.00 0.00 0.00 0.00 0.00 0.00 0.00 0.00 0.00 0.00 0.01 0.01 0.01 0.01 0.05 0.23 0.26 0.08 0.02 0.00 0.00 0.00 0.00 0.00 0.00 0.00 0.00 0.00 0.00 0.00 0.00 0.00 0.00 0.00 0.00 0.00
0.03 0.03 0.00 0.00 0.00 0.01 0.01 0.00 0.00 0.00 0.00 0.00 0.00 0.00 0.00 0.01 0.01 0.00 0.00 0.00 0.00 0.02 0.08 0.04 0.01 0.00 0.00 0.00 0.00 0.00 0.00 0.00 0.00 0.00 0.00 0.00 0.00 0.00 0.00 0.00 0.00 0.00 0.00 0.00
0.01 0.00 0.00 0.01 0.01 0.00 0.00 0.00 0.00 0.00 0.00 0.01 0.00 0.00 0.00 0.00 0.00 0.00 0.00 0.00 0.01 0.02 0.02 0.02 0.00 0.00 0.00 0.00 0.00 0.00 0.00 0.00 0.00 0.00 0.00 0.00 0.00 0.00 0.00 0.00 0.00 0.00 0.00 0.00
0.01 0.00 0.01 0.00 0.00 0.01 0.01 0.01 0.01 0.01 0.02 0.02 0.00 0.00 0.00 0.01 0.01 0.00 0.01 0.02 0.01 0.01 0.02 0.02 0.01 0.00 0.00 0.00 0.00 0.00 0.00 0.00 0.00 0.00 0.00 0.00 0.00 0.00 0.00 0.00 0.00 0.00 0.00 0.00
0.01 0.00 0.01 0.01 0.01 0.01 0.00 0.00 0.02 0.02 0.05 0.06 0.03 0.02 0.00 0.01 0.00 0.01 0.01 0.02 0.03 0.05 0.04 0.03 0.03 0.04 0.02 0.00 0.00 0.00 0.00 0.00 0.00 0.00 0.00 0.00 0.00 0.00 0.00 0.01 0.01 0.00 0.00 0.00
0.00 0.00 0.00 0.01 0.03 0.02 0.00 0.00 0.00 0.00 0.04 0.08 0.12 0.08 0.01 0.02 0.03 0.03 0.03 0.03 0.02 0.05 0.06 0.07 0.05 0.02 0.01 0.00 0.00 0.00 0.00 0.00 0.00 0.00 0.00 0.01 0.00 0.00 0.00 0.00 0.00 0.00 0.01 0.00

GFSNW_prec_precacc12_144.txt.gz
Total_Precipitation_Accumulation
0.19 0.20 0.27 0.30 0.22 0.19 0.25 0.38 0.45 0.08 0.02 0.08 0.05 0.00 0.00 0.00 0.00 0.00 0.00 0.00 0.00 0.00 0.00 0.00 0.00 0.00 0.00 0.00 0.00 0.00 0.00 0.00 0.00 0.00 0.00 0.00 0.00 0.01 0.04 0.09 0.12 0.17 0.25 0.09
0.17 0.25 0.29 0.32 0.26 0.18 0.24 0.38 0.41 0.24 0.08 0.07 0.03 0.00 0.00 0.00 0.00 0.00 0.00 0.00 0.00 0.00 0.00 0.00 0.00 0.00 0.00 0.00 0.00 0.00 0.00 0.00 0.00 0.00 0.00 0.00 0.00 0.01 0.01 0.07 0.14 0.06 0.08 0.02
0.14 0.21 0.31 0.32 0.21 0.17 0.23 0.35 0.45 0.42 0.15 0.01 0.00 0.01 0.02 0.01 0.00 0.00 0.00 0.00 0.00 0.00 0.00 0.00 0.00 0.00 0.00 0.00 0.00 0.00 0.00 0.00 0.00 0.00 0.00 0.00 0.00 0.00 0.00 0.02 0.04 0.01 0.01 0.00
0.13 0.16 0.29 0.26 0.17 0.20 0.25 0.32 0.25 0.12 0.09 0.02 0.00 0.00 0.01 0.02 0.03 0.01 0.00 0.01 0.00 0.00 0.00 0.00 0.00 0.00 0.00 0.00 0.00 0.00 0.00 0.00 0.00 0.00 0.00 0.00 0.00 0.00 0.00 0.00 0.01 0.03 0.01 0.04
0.13 0.13 0.18 0.24 0.15 0.17 0.25 0.27 0.10 0.04 0.02 0.01 0.02 0.01 0.01 0.00 0.00 0.00 0.00 0.00 0.00 0.00 0.00 0.00 0.00 0.00 0.00 0.00 0.00 0.00 0.00 0.00 0.00 0.00 0.00 0.00 0.00 0.00 0.00 0.00 0.02 0.03 0.04 0.06
0.13 0.12 0.11 0.11 0.16 0.11 0.16 0.16 0.05 0.03 0.03 0.01 0.02 0.02 0.01 0.01 0.01 0.01 0.00 0.00 0.00 0.00 0.00 0.00 0.00 0.00 0.00 0.00 0.00 0.00 0.00 0.00 0.00 0.00 0.00 0.00 0.03 0.01 0.01 0.07 0.21 0.17 0.13 0.08
0.12 0.12 0.11 0.07 0.06 0.07 0.06 0.03 0.03 0.05 0.04 0.01 0.00 0.01 0.01 0.02 0.01 0.01 0.00 0.00 0.00 0.00 0.00 0.00 0.00 0.00 0.00 0.00 0.00 0.00 0.00 0.00 0.01 0.00 0.00 0.00 0.02 0.00 0.01 0.09 0.08 0.02 0.04 0.02
0.09 0.13 0.12 0.09 0.05 0.10 0.06 0.03 0.01 0.04 0.01 0.00 0.01 0.01 0.01 0.00 0.00 0.00 0.00 0.00 0.00 0.00 0.00 0.00 0.00 0.00 0.00 0.00 0.00 0.00 0.00 0.00 0.01 0.01 0.00 0.01 0.00 0.00 0.00 0.02 0.07 0.02 0.02 0.01
0.08 0.10 0.12 0.15 0.11 0.10 0.05 0.04 0.03 0.00 0.00 0.00 0.00 0.00 0.00 0.00 0.00 0.00 0.00 0.00 0.00 0.00 0.00 0.00 0.00 0.00 0.00 0.00 0.00 0.00 0.00 0.00 0.00 0.01 0.03 0.02 0.00 0.00 0.00 0.03 0.08 0.03 0.04 0.04
0.11 0.09 0.13 0.18 0.13 0.06 0.05 0.01 0.00 0.00 0.00 0.00 0.00 0.00 0.00 0.00 0.00 0.00 0.00 0.00 0.00 0.00 0.00 0.00 0.00 0.00 0.00 0.00 0.00 0.00 0.00 0.00 0.00 0.00 0.01 0.00 0.00 0.00 0.00 0.02 0.05 0.05 0.07 0.09
0.13 0.10 0.11 0.14 0.10 0.02 0.01 0.00 0.00 0.00 0.00 0.00 0.00 0.00 0.00 0.00 0.00 0.00 0.00 0.00 0.00 0.00 0.00 0.00 0.00 0.00 0.00 0.00 0.00 0.00 0.00 0.00 0.00 0.00 0.00 0.00 0.00 0.00 0.01 0.03 0.04 0.08 0.11 0.10
0.11 0.09 0.10 0.09 0.04 0.00 0.00 0.00 0.00 0.00 0.00 0.00 0.00 0.00 0.00 0.00 0.00 0.00 0.00 0.00 0.00 0.00 0.00 0.00 0.00 0.00 0.00 0.00 0.00 0.00 0.00 0.00 0.00 0.00 0.01 0.00 0.00 0.01 0.03 0.05 0.06 0.08 0.05 0.03
0.09 0.10 0.07 0.03 0.00 0.00 0.00 0.00 0.00 0.00 0.00 0.00 0.00 0.00 0.00 0.00 0.00 0.00 0.00 0.00 0.00 0.00 0.00 0.00 0.00 0.00 0.00 0.00 0.00 0.00 0.00 0.00 0.00 0.01 0.01 0.01 0.00 0.01 0.01 0.01 0.03 0.02 0.00 0.00
0.08 0.07 0.02 0.00 0.00 0.00 0.00 0.00 0.00 0.00 0.00 0.00 0.00 0.00 0.00 0.00 0.00 0.00 0.00 0.00 0.00 0.00 0.00 0.00 0.00 0.00 0.00 0.00 0.00 0.00 0.00 0.00 0.00 0.00 0.00 0.01 0.03 0.01 0.00 0.00 0.00 0.00 0.00 0.00
0.03 0.01 0.00 0.00 0.00 0.00 0.00 0.00 0.00 0.00 0.00 0.00 0.00 0.00 0.00 0.00 0.00 0.00 0.00 0.00 0.00 0.00 0.00 0.00 0.00 0.00 0.00 0.00 0.00 0.00 0.00 0.00 0.00 0.00 0.00 0.00 0.01 0.00 0.00 0.00 0.00 0.00 0.00 0.00
0.01 0.00 0.00 0.00 0.00 0.00 0.00 0.00 0.00 0.00 0.00 0.00 0.00 0.00 0.00 0.00 0.00 0.00 0.00 0.00 0.00 0.00 0.00 0.00 0.00 0.00 0.00 0.00 0.00 0.00 0.00 0.00 0.00 0.00 0.00 0.00 0.00 0.00 0.00 0.00 0.00 0.00 0.00 0.00
0.00 0.00 0.00 0.00 0.00 0.00 0.00 0.00 0.00 0.00 0.00 0.00 0.00 0.00 0.00 0.00 0.00 0.00 0.00 0.00 0.00 0.00 0.00 0.00 0.00 0.00 0.00 0.00 0.00 0.00 0.00 0.00 0.00 0.00 0.00 0.00 0.00 0.00 0.00 0.00 0.00 0.00 0.00 0.00
0.00 0.00 0.00 0.00 0.00 0.00 0.00 0.00 0.00 0.00 0.00 0.00 0.00 0.00 0.00 0.00 0.00 0.00 0.00 0.00 0.00 0.00 0.00 0.00 0.00 0.00 0.00 0.00 0.00 0.00 0.00 0.00 0.00 0.00 0.00 0.00 0.00 0.00 0.00 0.00 0.00 0.00 0.00 0.00
0.00 0.00 0.00 0.00 0.00 0.00 0.00 0.00 0.00 0.00 0.00 0.00 0.00 0.00 0.00 0.00 0.00 0.00 0.00 0.00 0.00 0.00 0.00 0.00 0.00 0.00 0.00 0.00 0.00 0.00 0.00 0.00 0.00 0.00 0.00 0.00 0.00 0.00 0.00 0.00 0.00 0.00 0.00 0.00
0.00 0.00 0.00 0.00 0.00 0.00 0.00 0.00 0.00 0.00 0.00 0.00 0.00 0.00 0.00 0.00 0.00 0.01 0.00 0.00 0.00 0.00 0.00 0.00 0.00 0.00 0.00 0.00 0.00 0.00 0.00 0.00 0.00 0.00 0.00 0.00 0.00 0.00 0.00 0.00 0.00 0.00 0.00 0.00
0.00 0.00 0.00 0.00 0.00 0.00 0.00 0.00 0.00 0.00 0.00 0.00 0.00 0.00 0.00 0.00 0.00 0.00 0.00 0.00 0.00 0.00 0.01 0.01 0.01 0.01 0.00 0.00 0.00 0.00 0.00 0.00 0.00 0.00 0.00 0.00 0.00 0.00 0.00 0.00 0.00 0.00 0.00 0.00
0.00 0.00 0.00 0.00 0.00 0.00 0.00 0.00 0.00 0.00 0.00 0.00 0.00 0.00 0.00 0.00 0.00 0.00 0.00 0.00 0.00 0.00 0.02 0.06 0.04 0.03 0.01 0.00 0.00 0.00 0.00 0.00 0.00 0.00 0.00 0.00 0.00 0.00 0.00 0.00 0.00 0.00 0.00 0.00
0.00 0.00 0.00 0.00 0.00 0.00 0.00 0.00 0.00 0.00 0.00 0.00 0.00 0.00 0.00 0.00 0.00 0.00 0.00 0.00 0.00 0.00 0.02 0.02 0.00 0.00 0.00 0.00 0.00 0.00 0.00 0.00 0.00 0.00 0.00 0.00 0.00 0.00 0.00 0.00 0.00 0.00 0.00 0.00
0.00 0.00 0.00 0.00 0.00 0.00 0.00 0.00 0.00 0.00 0.00 0.00 0.00 0.00 0.00 0.00 0.00 0.00 0.00 0.00 0.00 0.01 0.01 0.00 0.00 0.00 0.00 0.00 0.00 0.00 0.00 0.00 0.00 0.00 0.00 0.00 0.00 0.00 0.00 0.00 0.00 0.00 0.00 0.00
0.00 0.00 0.00 0.00 0.00 0.00 0.00 0.00 0.00 0.00 0.00 0.00 0.00 0.00 0.00 0.00 0.00 0.00 0.00 0.00 0.00 0.00 0.00 0.00 0.00 0.00 0.00 0.00 0.00 0.00 0.00 0.00 0.00 0.00 0.00 0.00 0.00 0.00 0.00 0.00 0.00 0.00 0.00 0.00
0.00 0.00 0.01 0.01 0.01 0.01 0.00 0.00 0.00 0.00 0.00 0.00 0.00 0.00 0.00 0.00 0.00 0.00 0.00 0.00 0.00 0.00 0.00 0.02 0.03 0.04 0.03 0.01 0.01 0.00 0.00 0.00 0.00 0.00 0.00 0.00 0.00 0.00 0.00 0.00 0.00 0.00 0.00 0.00
0.00 0.01 0.01 0.01 0.01 0.01 0.00 0.00 0.00 0.00 0.00 0.01 0.00 0.00 0.00 0.00 0.00 0.00 0.00 0.00 0.00 0.00 0.01 0.05 0.05 0.02 0.01 0.00 0.00 0.00 0.00 0.00 0.00 0.00 0.00 0.00 0.00 0.00 0.00 0.00 0.00 0.00 0.00 0.00

GFSNW_prec_precacc12_150.txt.gz
Total_Precipitation_Accumulation
0.06 0.08 0.15 0.29 0.29 0.32 0.37 0.53 0.75 0.56 0.39 0.27 0.16 0.04 0.00 0.00 0.00 0.00 0.00 0.00 0.00 0.00 0.00 0.00 0.00 0.00 0.00 0.00 0.00 0.00 0.00 0.00 0.00 0.00 0.00 0.00 0.00 0.00 0.00 0.00 0.01 0.03 0.03 0.01
0.08 0.12 0.16 0.32 0.41 0.30 0.29 0.60 0.73 0.70 0.91 0.68 0.17 0.00 0.00 0.00 0.00 0.00 0.00 0.00 0.00 0.00 0.00 0.00 0.00 0.00 0.00 0.00 0.00 0.00 0.00 0.00 0.00 0.00 0.00 0.00 0.00 0.00 0.00 0.00 0.03 0.01 0.02 0.01
0.10 0.13 0.23 0.33 0.33 0.26 0.36 0.54 0.81 0.90 0.68 0.39 0.16 0.03 0.02 0.01 0.00 0.00 0.00 0.00 0.00 0.00 0.00 0.00 0.00 0.00 0.00 0.00 0.00 0.00 0.00 0.00 0.00 0.00 0.00 0.00 0.00 0.00 0.00 0.01 0.03 0.01 0.01 0.00
0.10 0.12 0.22 0.29 0.22 0.32 0.49 0.61 0.47 0.26 0.25 0.14 0.07 0.09 0.07 0.02 0.02 0.01 0.01 0.01 0.00 0.00 0.00 0.00 0.00 0.00 0.00 0.00 0.00 0.00 0.00 0.00 0.00 0.00 0.00 0.00 0.00 0.00 0.00 0.00 0.01 0.02 0.00 0.02
0.10 0.11 0.18 0.29 0.18 0.30 0.50 0.58 0.26 0.06 0.02 0.01 0.04 0.09 0.08 0.03 0.00 0.01 0.03 0.02 0.01 0.01 0.01 0.01 0.01 0.00 0.00 0.00 0.00 0.00 0.00 0.00 0.00 0.00 0.00 0.00 0.00 0.00 0.00 0.00 0.01 0.00 0.01 0.04
0.07 0.11 0.12 0.15 0.19 0.25 0.41 0.41 0.15 0.06 0.06 0.01 0.05 0.07 0.03 0.02 0.01 0.01 0.00 0.01 0.01 0.01 0.01 0.00 0.00 0.00 0.00 0.00 0.00 0.00 0.00 0.00 0.00 0.00 0.00 0.00 0.00 0.00 0.00 0.00 0.00 0.00 0.03 0.03
0.07 0.08 0.10 0.10 0.09 0.11 0.12 0.11 0.13 0.18 0.13 0.04 0.01 0.00 0.03 0.05 0.04 0.01 0.01 0.00 0.00 0.00 0.00 0.00 0.00 0.00 0.00 0.00 0.00 0.00 0.00 0.00 0.00 0.00 0.00 0.01 0.00 0.00 0.00 0.00 0.00 0.00 0.01 0.01
0.08 0.11 0.14 0.10 0.08 0.13 0.10 0.05 0.07 0.16 0.11 0.02 0.02 0.01 0.02 0.02 0.06 0.03 0.00 0.00 0.00 0.00 0.00 0.00 0.00 0.00 0.00 0.00 0.00 0.00 0.00 0.00 0.01 0.00 0.00 0.00 0.00 0.00 0.00 0.00 0.02 0.01 0.01 0.00
0.10 0.12 0.14 0.17 0.13 0.15 0.14 0.09 0.06 0.07 0.14 0.05 0.02 0.01 0.01 0.02 0.03 0.00 0.00 0.00 0.00 0.00 0.00 0.00 0.00 0.00 0.00 0.00 0.00 0.00 0.00 0.00 0.01 0.01 0.01 0.01 0.01 0.00 0.00 0.01 0.04 0.02 0.02 0.02
0.12 0.11 0.14 0.21 0.19 0.15 0.17 0.11 0.11 0.16 0.11 0.03 0.01 0.02 0.03 0.00 0.00 0.00 0.00 0.00 0.00 0.00 0.00 0.00 0.00 0.00 0.00 0.00 0.00 0.00 0.00 0.00 0.01 0.01 0.02 0.01 0.00 0.00 0.00 0.02 0.05 0.03 0.04 0.05
0.15 0.13 0.15 0.20 0.17 0.13 0.14 0.12 0.13 0.21 0.14 0.02 0.02 0.02 0.01 0.01 0.00 0.00 0.00 0.00 0.00 0.00 0.00 0.00 0.00 0.00 0.00 0.00 0.00 0.00 0.00 0.00 0.00 0.01 0.03 0.02 0.00 0.00 0.00 0.01 0.01 0.02 0.04 0.03
0.15 0.13 0.16 0.16 0.12 0.09 0.08 0.11 0.13 0.12 0.10 0.02 0.01 0.01 0.00 0.00 0.00 0.00 0.00 0.00 0.00 0.00 0.00 0.00 0.00 0.00 0.00 0.00 0.00 0.00 0.00 0.00 0.01 0.01 0.02 0.00 0.00 0.00 0.00 0.00 0.00 0.01 0.01 0.00
0.14 0.15 0.13 0.11 0.08 0.06 0.06 0.09 0.12 0.11 0.10 0.08 0.04 0.00 0.00 0.00 0.00 0.00 0.00 0.00 0.00 0.00 0.00 0.00 0.00 0.00 0.00 0.00 0.00 0.00 0.00 0.00 0.00 0.00 0.00 0.00 0.00 0.00 0.00 0.00 0.00 0.00 0.00 0.00
0.15 0.14 0.10 0.08 0.06 0.04 0.04 0.08 0.07 0.04 0.05 0.09 0.04 0.00 0.00 0.00 0.00 0.00 0.00 0.00 0.00 0.00 0.00 0.00 0.00 0.00 0.00 0.00 0.00 0.00 0.00 0.00 0.00 0.00 0.00 0.00 0.00 0.00 0.00 0.00 0.00 0.00 0.00 0.00
0.14 0.11 0.08 0.06 0.04 0.04 0.05 0.07 0.06 0.02 0.01 0.01 0.01 0.00 0.00 0.00 0.00 0.00 0.00 0.00 0.00 0.00 0.00 0.00 0.00 0.00 0.00 0.00 0.00 0.00 0.00 0.00 0.00 0.01 0.00 0.00 0.00 0.00 0.00 0.00 0.00 0.00 0.00 0.00
0.10 0.07 0.04 0.03 0.02 0.04 0.11 0.18 0.08 0.02 0.00 0.00 0.01 0.00 0.00 0.00 0.00 0.00 0.00 0.00 0.00 0.00 0.00 0.00 0.00 0.00 0.00 0.00 0.00 0.00 0.00 0.00 0.00 0.00 0.00 0.00 0.00 0.00 0.00 0.00 0.00 0.00 0.00 0.00
0.08 0.05 0.05 0.04 0.02 0.03 0.04 0.02 0.01 0.00 0.00 0.00 0.00 0.00 0.00 0.00 0.00 0.00 0.00 0.00 0.00 0.00 0.00 0.00 0.00 0.00 0.00 0.00 0.00 0.00 0.00 0.00 0.00 0.00 0.00 0.00 0.00 0.00 0.00 0.00 0.00 0.00 0.00 0.00
0.04 0.05 0.07 0.06 0.04 0.02 0.00 0.00 0.00 0.00 0.00 0.00 0.00 0.01 0.00 0.00 0.00 0.00 0.00 0.00 0.00 0.00 0.00 0.00 0.00 0.00 0.00 0.00 0.00 0.00 0.00 0.00 0.00 0.00 0.00 0.00 0.00 0.00 0.00 0.00 0.00 0.00 0.00 0.00
0.04 0.05 0.04 0.01 0.00 0.00 0.00 0.00 0.00 0.00 0.00 0.00 0.00 0.00 0.00 0.00 0.00 0.00 0.00 0.00 0.00 0.00 0.00 0.00 0.00 0.00 0.00 0.00 0.00 0.00 0.00 0.00 0.00 0.00 0.00 0.00 0.00 0.00 0.00 0.00 0.00 0.00 0.00 0.00
0.01 0.01 0.00 0.00 0.00 0.00 0.00 0.00 0.00 0.00 0.00 0.00 0.00 0.00 0.00 0.00 0.00 0.00 0.00 0.00 0.00 0.00 0.00 0.00 0.00 0.00 0.00 0.00 0.00 0.00 0.00 0.00 0.00 0.00 0.00 0.00 0.00 0.00 0.00 0.00 0.00 0.00 0.00 0.00
0.00 0.00 0.00 0.00 0.00 0.00 0.00 0.00 0.00 0.00 0.00 0.00 0.00 0.00 0.00 0.00 0.00 0.00 0.00 0.00 0.00 0.00 0.00 0.01 0.00 0.01 0.00 0.00 0.00 0.00 0.00 0.00 0.00 0.00 0.00 0.00 0.00 0.00 0.00 0.00 0.00 0.00 0.00 0.00
0.00 0.00 0.00 0.00 0.00 0.00 0.00 0.00 0.00 0.00 0.00 0.00 0.00 0.00 0.00 0.00 0.00 0.00 0.00 0.00 0.00 0.01 0.01 0.01 0.01 0.00 0.00 0.00 0.00 0.00 0.00 0.00 0.00 0.00 0.00 0.00 0.00 0.00 0.00 0.00 0.00 0.00 0.00 0.00
0.00 0.00 0.00 0.00 0.00 0.00 0.00 0.00 0.00 0.00 0.00 0.00 0.00 0.00 0.00 0.00 0.00 0.00 0.00 0.00 0.00 0.00 0.00 0.00 0.00 0.00 0.00 0.00 0.00 0.00 0.00 0.00 0.00 0.00 0.00 0.00 0.00 0.00 0.00 0.00 0.00 0.00 0.00 0.00
0.00 0.00 0.00 0.00 0.00 0.00 0.00 0.00 0.00 0.00 0.00 0.00 0.00 0.00 0.00 0.00 0.00 0.00 0.00 0.00 0.00 0.00 0.00 0.00 0.00 0.00 0.00 0.00 0.00 0.00 0.00 0.00 0.00 0.00 0.00 0.00 0.00 0.00 0.00 0.00 0.00 0.00 0.00 0.00
0.00 0.00 0.00 0.01 0.01 0.01 0.00 0.00 0.00 0.00 0.00 0.00 0.00 0.00 0.00 0.00 0.00 0.00 0.00 0.00 0.00 0.00 0.00 0.01 0.00 0.00 0.00 0.00 0.00 0.00 0.00 0.00 0.00 0.00 0.00 0.00 0.00 0.00 0.00 0.00 0.00 0.00 0.00 0.00
0.00 0.02 0.02 0.03 0.02 0.02 0.01 0.01 0.01 0.00 0.00 0.00 0.00 0.00 0.00 0.00 0.00 0.00 0.00 0.00 0.00 0.00 0.01 0.00 0.00 0.00 0.00 0.01 0.01 0.00 0.00 0.00 0.00 0.00 0.00 0.00 0.00 0.00 0.00 0.00 0.00 0.00 0.00 0.00
0.01 0.03 0.05 0.04 0.02 0.04 0.02 0.01 0.00 0.00 0.00 0.00 0.00 0.00 0.00 0.00 0.00 0.00 0.00 0.00 0.00 0.00 0.00 0.00 0.00 0.00 0.00 0.00 0.00 0.00 0.00 0.00 0.00 0.00 0.00 0.00 0.00 0.00 0.00 0.01 0.00 0.00 0.00 0.00

GFSNW_prec_precacc12_156.txt.gz
Total_Precipitation_Accumulation
0.06 0.03 0.02 0.04 0.10 0.20 0.25 0.24 0.45 0.59 0.77 0.69 0.53 0.24 0.06 0.01 0.00 0.01 0.01 0.00 0.01 0.02 0.01 0.00 0.00 0.00 0.00 0.00 0.00 0.00 0.00 0.00 0.00 0.00 0.00 0.00 0.00 0.00 0.00 0.00 0.00 0.00 0.00 0.00
0.06 0.05 0.03 0.04 0.19 0.23 0.14 0.39 0.50 0.59 1.20 1.28 0.52 0.07 0.01 0.00 0.00 0.00 0.05 0.02 0.00 0.00 0.01 0.00 0.00 0.00 0.00 0.00 0.00 0.00 0.00 0.00 0.00 0.00 0.00 0.00 0.00 0.00 0.00 0.00 0.00 0.00 0.00 0.00
0.06 0.06 0.04 0.06 0.17 0.20 0.32 0.38 0.63 0.77 0.86 0.67 0.45 0.13 0.02 0.01 0.00 0.01 0.02 0.07 0.05 0.01 0.01 0.00 0.00 0.00 0.00 0.00 0.00 0.00 0.00 0.00 0.00 0.00 0.00 0.00 0.00 0.00 0.00 0.00 0.00 0.00 0.00 0.00
0.08 0.07 0.07 0.07 0.11 0.25 0.59 0.75 0.51 0.25 0.34 0.21 0.15 0.22 0.20 0.03 0.01 0.02 0.02 0.02 0.05 0.10 0.05 0.01 0.01 0.00 0.00 0.00 0.00 0.00 0.00 0.00 0.00 0.00 0.00 0.00 0.00 0.00 0.00 0.00 0.00 0.00 0.00 0.00
0.09 0.10 0.09 0.12 0.07 0.29 0.74 0.90 0.48 0.05 0.01 0.01 0.03 0.11 0.18 0.11 0.02 0.01 0.04 0.04 0.01 0.01 0.02 0.04 0.02 0.01 0.00 0.00 0.00 0.00 0.00 0.00 0.00 0.00 0.00 0.00 0.00 0.00 0.00 0.00 0.00 0.00 0.00 0.01
0.07 0.09 0.10 0.10 0.10 0.27 0.66 0.63 0.36 0.14 0.06 0.02 0.05 0.07 0.03 0.04 0.08 0.11 0.03 0.02 0.02 0.02 0.01 0.00 0.00 0.00 0.00 0.00 0.00 0.00 0.00 0.00 0.00 0.00 0.00 0.00 0.00 0.00 0.00 0.00 0.00 0.00 0.00 0.00
0.05 0.08 0.09 0.09 0.13 0.16 0.19 0.20 0.33 0.63 0.22 0.04 0.01 0.00 0.01 0.03 0.06 0.08 0.12 0.04 0.01 0.01 0.00 0.00 0.00 0.00 0.00 0.00 0.00 0.00 0.00 0.00 0.00 0.00 0.00 0.00 0.00 0.00 0.00 0.00 0.00 0.00 0.00 0.00
0.05 0.05 0.07 0.08 0.11 0.17 0.20 0.09 0.19 0.64 0.54 0.05 0.02 0.00 0.01 0.03 0.13 0.10 0.03 0.08 0.02 0.00 0.00 0.01 0.02 0.01 0.00 0.00 0.00 0.00 0.00 0.00 0.00 0.00 0.00 0.00 0.00 0.00 0.00 0.00 0.00 0.00 0.00 0.00
0.04 0.03 0.05 0.06 0.10 0.20 0.26 0.15 0.11 0.25 0.69 0.34 0.04 0.01 0.02 0.05 0.08 0.08 0.03 0.01 0.01 0.00 0.01 0.02 0.02 0.01 0.00 0.00 0.00 0.00 0.00 0.00 0.01 0.01 0.01 0.01 0.01 0.00 0.00 0.00 0.01 0.00 0.00 0.00
0.02 0.02 0.02 0.07 0.10 0.23 0.26 0.15 0.20 0.37 0.49 0.28 0.24 0.14 0.06 0.02 0.01 0.02 0.01 0.00 0.00 0.00 0.01 0.02 0.00 0.00 0.00 0.00 0.00 0.00 0.00 0.00 0.01 0.01 0.02 0.02 0.00 0.00 0.00 0.01 0.02 0.00 0.00 0.00
0.02 0.03 0.04 0.07 0.11 0.19 0.24 0.16 0.16 0.38 0.49 0.20 0.31 0.33 0.10 0.06 0.01 0.00 0.00 0.02 0.01 0.00 0.01 0.01 0.00 0.00 0.00 0.00 0.00 0.00 0.00 0.00 0.00 0.01 0.03 0.02 0.00 0.00 0.00 0.00 0.00 0.00 0.00 0.00
0.04 0.05 0.05 0.07 0.09 0.14 0.16 0.16 0.20 0.21 0.59 0.39 0.19 0.28 0.10 0.03 0.01 0.00 0.00 0.00 0.00 0.00 0.00 0.00 0.00 0.00 0.00 0.00 0.00 0.00 0.00 0.00 0.01 0.02 0.02 0.00 0.00 0.00 0.00 0.00 0.00 0.00 0.00 0.00
0.06 0.05 0.07 0.09 0.09 0.10 0.13 0.13 0.25 0.21 0.33 0.52 0.32 0.22 0.14 0.04 0.01 0.00 0.00 0.00 0.00 0.00 0.00 0.00 0.00 0.00 0.00 0.00 0.00 0.00 0.00 0.00 0.00 0.00 0.00 0.00 0.00 0.00 0.00 0.00 0.00 0.00 0.00 0.00
0.09 0.08 0.08 0.09 0.09 0.10 0.14 0.14 0.15 0.22 0.21 0.44 0.39 0.18 0.07 0.04 0.01 0.00 0.00 0.00 0.00 0.00 0.00 0.00 0.00 0.00 0.00 0.00 0.00 0.00 0.00 0.00 0.00 0.00 0.00 0.00 0.00 0.00 0.00 0.00 0.00 0.00 0.00 0.00
0.13 0.11 0.09 0.08 0.10 0.13 0.16 0.14 0.11 0.17 0.23 0.15 0.12 0.15 0.04 0.01 0.00 0.00 0.00 0.00 0.00 0.00 0.00 0.00 0.00 0.00 0.00 0.00 0.00 0.00 0.00 0.00 0.00 0.01 0.00 0.00 0.00 0.00 0.00 0.00 0.00 0.00 0.00 0.00
0.12 0.09 0.06 0.07 0.10 0.13 0.26 0.45 0.28 0.20 0.17 0.16 0.23 0.21 0.05 0.01 0.00 0.00 0.00 0.00 0.00 0.00 0.00 0.00 0.00 0.00 0.00 0.00 0.00 0.00 0.00 0.00 0.00 0.00 0.00 0.00 0.00 0.00 0.00 0.00 0.00 0.00 0.00 0.00
0.11 0.08 0.08 0.09 0.10 0.09 0.13 0.18 0.13 0.11 0.11 0.13 0.13 0.14 0.03 0.01 0.00 0.00 0.00 0.00 0.00 0.00 0.00 0.00 0.00 0.00 0.00 0.00 0.00 0.00 0.00 0.00 0.00 0.00 0.00 0.00 0.00 0.00 0.00 0.00 0.00 0.00 0.00 0.00
0.08 0.10 0.12 0.16 0.16 0.12 0.08 0.03 0.00 0.01 0.06 0.02 0.04 0.07 0.00 0.00 0.00 0.00 0.00 0.00 0.00 0.00 0.00 0.00 0.00 0.00 0.00 0.00 0.00 0.00 0.00 0.00 0.00 0.00 0.00 0.00 0.00 0.00 0.00 0.00 0.00 0.00 0.00 0.00
0.08 0.12 0.18 0.24 0.17 0.11 0.14 0.06 0.03 0.01 0.02 0.01 0.00 0.02 0.01 0.00 0.00 0.00 0.00 0.00 0.00 0.00 0.00 0.00 0.00 0.00 0.00 0.00 0.00 0.00 0.00 0.00 0.00 0.00 0.00 0.00 0.00 0.00 0.00 0.00 0.00 0.00 0.00 0.00
0.10 0.19 0.31 0.36 0.11 0.07 0.26 0.25 0.15 0.03 0.00 0.00 0.00 0.00 0.00 0.00 0.00 0.00 0.00 0.00 0.00 0.00 0.00 0.00 0.00 0.01 0.00 0.00 0.00 0.00 0.00 0.00 0.00 0.00 0.00 0.00 0.00 0.00 0.00 0.00 0.00 0.00 0.00 0.00
0.05 0.09 0.06 0.04 0.08 0.14 0.16 0.09 0.02 0.00 0.00 0.00 0.00 0.00 0.00 0.00 0.00 0.00 0.00 0.00 0.00 0.00 0.00 0.00 0.00 0.01 0.00 0.00 0.00 0.00 0.00 0.00 0.00 0.00 0.00 0.00 0.00 0.00 0.00 0.00 0.00 0.00 0.00 0.00
0.00 0.00 0.02 0.08 0.10 0.05 0.01 0.00 0.00 0.00 0.00 0.00 0.00 0.00 0.00 0.00 0.00 0.00 0.00 0.00 0.00 0.01 0.00 0.00 0.00 0.00 0.00 0.00 0.00 0.00 0.00 0.00 0.00 0.00 0.00 0.00 0.00 0.00 0.00 0.00 0.00 0.00 0.00 0.00
0.00 0.00 0.01 0.02 0.01 0.00 0.00 0.00 0.00 0.00 0.00 0.00 0.00 0.00 0.00 0.00 0.00 0.00 0.00 0.00 0.00 0.00 0.00 0.00 0.00 0.00 0.00 0.00 0.00 0.00 0.00 0.00 0.00 0.00 0.00 0.00 0.00 0.00 0.00 0.00 0.00 0.00 0.00 0.00
0.01 0.00 0.00 0.00 0.00 0.00 0.00 0.00 0.00 0.00 0.00 0.00 0.00 0.00 0.00 0.00 0.00 0.00 0.00 0.00 0.00 0.00 0.00 0.00 0.00 0.00 0.00 0.00 0.00 0.00 0.00 0.00 0.00 0.00 0.00 0.00 0.00 0.00 0.00 0.00 0.00 0.00 0.00 0.00
0.00 0.00 0.00 0.01 0.01 0.01 0.00 0.00 0.00 0.00 0.00 0.00 0.00 0.00 0.00 0.00 0.00 0.00 0.00 0.00 0.00 0.00 0.00 0.01 0.00 0.00 0.00 0.00 0.00 0.00 0.00 0.00 0.00 0.00 0.00 0.00 0.00 0.00 0.00 0.00 0.00 0.00 0.00 0.00
0.00 0.03 0.06 0.05 0.03 0.02 0.01 0.01 0.01 0.01 0.00 0.00 0.00 0.00 0.00 0.00 0.00 0.00 0.00 0.00 0.00 0.00 0.01 0.00 0.00 0.00 0.00 0.00 0.00 0.00 0.00 0.00 0.00 0.00 0.00 0.00 0.00 0.00 0.00 0.00 0.00 0.00 0.00 0.00
0.02 0.05 0.09 0.07 0.06 0.06 0.02 0.01 0.00 0.00 0.01 0.00 0.00 0.00 0.00 0.00 0.00 0.00 0.00 0.00 0.01 0.00 0.00 0.00 0.00 0.00 0.00 0.00 0.00 0.00 0.00 0.00 0.00 0.00 0.00 0.00 0.00 0.00 0.00 0.01 0.00 0.00 0.00 0.00

GFSNW_prec_precacc12_162.txt.gz
Total_Precipitation_Accumulation
0.08 0.06 0.04 0.08 0.10 0.11 0.23 0.16 0.19 0.13 0.45 0.70 0.69 0.44 0.14 0.08 0.01 0.01 0.02 0.02 0.03 0.03 0.01 0.00 0.00 0.00 0.00 0.00 0.00 0.00 0.00 0.00 0.00 0.00 0.00 0.00 0.00 0.00 0.00 0.00 0.00 0.00 0.00 0.00
0.08 0.09 0.08 0.06 0.14 0.28 0.16 0.24 0.19 0.16 0.49 0.78 0.48 0.11 0.03 0.02 0.00 0.03 0.12 0.08 0.02 0.03 0.03 0.04 0.00 0.00 0.00 0.00 0.00 0.00 0.00 0.00 0.01 0.00 0.00 0.00 0.00 0.00 0.00 0.00 0.00 0.00 0.00 0.00
0.08 0.09 0.09 0.08 0.13 0.36 0.55 0.30 0.31 0.35 0.54 0.39 0.36 0.12 0.03 0.04 0.00 0.01 0.11 0.39 0.17 0.06 0.07 0.06 0.04 0.00 0.00 0.00 0.00 0.00 0.00 0.00 0.00 0.00 0.00 0.00 0.00 0.00 0.00 0.00 0.00 0.00 0.00 0.00
0.10 0.10 0.12 0.10 0.12 0.25 0.67 0.96 0.45 0.13 0.30 0.22 0.09 0.17 0.15 0.03 0.02 0.02 0.02 0.05 0.25 0.41 0.32 0.13 0.11 0.02 0.00 0.00 0.00 0.00 0.00 0.01 0.00 0.00 0.00 0.00 0.00 0.00 0.00 0.00 0.00 0.00 0.00 0.00
0.13 0.13 0.11 0.13 0.11 0.32 0.82 0.96 0.48 0.08 0.02 0.00 0.01 0.03 0.13 0.09 0.02 0.01 0.03 0.03 0.00 0.04 0.33 0.40 0.22 0.08 0.03 0.01 0.00 0.00 0.00 0.02 0.01 0.01 0.00 0.00 0.00 0.00 0.00 0.00 0.00 0.00 0.00 0.00
0.09 0.10 0.12 0.14 0.14 0.33 1.21 0.72 0.32 0.14 0.05 0.01 0.02 0.03 0.01 0.02 0.07 0.11 0.03 0.03 0.04 0.04 0.01 0.01 0.06 0.11 0.09 0.05 0.01 0.01 0.01 0.02 0.02 0.02 0.01 0.00 0.00 0.00 0.00 0.00 0.00 0.00 0.00 0.00
0.09 0.10 0.11 0.14 0.17 0.21 0.44 0.50 0.35 0.63 0.22 0.03 0.01 0.00 0.00 0.00 0.03 0.08 0.13 0.05 0.02 0.03 0.01 0.01 0.01 0.05 0.09 0.08 0.04 0.01 0.01 0.00 0.01 0.01 0.01 0.01 0.00 0.00 0.00 0.00 0.00 0.00 0.00 0.00
0.08 0.09 0.10 0.13 0.16 0.24 0.19 0.23 0.52 0.75 0.56 0.09 0.01 0.00 0.00 0.01 0.08 0.09 0.07 0.15 0.07 0.01 0.03 0.09 0.10 0.08 0.12 0.10 0.04 0.01 0.01 0.01 0.02 0.02 0.01 0.00 0.00 0.00 0.00 0.00 0.00 0.00 0.00 0.00
0.06 0.08 0.08 0.11 0.14 0.25 0.24 0.17 0.18 0.53 0.79 0.43 0.11 0.05 0.01 0.03 0.06 0.10 0.05 0.04 0.14 0.08 0.09 0.11 0.12 0.08 0.04 0.02 0.01 0.01 0.01 0.02 0.02 0.01 0.00 0.00 0.00 0.00 0.00 0.00 0.00 0.00 0.00 0.00
0.05 0.06 0.07 0.09 0.11 0.26 0.29 0.17 0.14 0.32 0.63 0.31 0.31 0.29 0.13 0.03 0.02 0.03 0.02 0.02 0.08 0.16 0.26 0.27 0.12 0.04 0.01 0.01 0.00 0.00 0.00 0.00 0.01 0.00 0.01 0.01 0.00 0.00 0.00 0.00 0.00 0.00 0.00 0.00
0.04 0.07 0.07 0.06 0.10 0.20 0.35 0.18 0.10 0.24 0.42 0.23 0.49 0.54 0.28 0.20 0.09 0.03 0.03 0.11 0.13 0.22 0.22 0.15 0.11 0.05 0.01 0.00 0.00 0.00 0.00 0.00 0.00 0.00 0.03 0.01 0.00 0.00 0.00 0.00 0.00 0.00 0.00 0.00
0.01 0.02 0.04 0.04 0.06 0.16 0.33 0.25 0.13 0.19 0.56 0.40 0.23 0.40 0.27 0.26 0.22 0.19 0.10 0.03 0.02 0.02 0.04 0.02 0.00 0.01 0.01 0.01 0.00 0.00 0.00 0.00 0.00 0.00 0.00 0.00 0.00 0.00 0.00 0.00 0.00 0.00 0.00 0.00
0.03 0.01 0.01 0.03 0.04 0.10 0.23 0.23 0.24 0.21 0.36 0.52 0.33 0.29 0.25 0.15 0.12 0.17 0.32 0.12 0.02 0.00 0.01 0.01 0.01 0.00 0.00 0.00 0.00 0.00 0.00 0.00 0.00 0.00 0.00 0.00 0.00 0.00 0.00 0.00 0.00 0.00 0.00 0.00
0.05 0.03 0.01 0.01 0.02 0.09 0.17 0.21 0.25 0.28 0.23 0.41 0.40 0.31 0.30 0.20 0.16 0.10 0.15 0.11 0.11 0.03 0.01 0.01 0.01 0.00 0.00 0.00 0.00 0.00 0.00 0.00 0.00 0.00 0.00 0.00 0.00 0.00 0.00 0.00 0.00 0.00 0.00 0.00
0.06 0.04 0.03 0.02 0.06 0.12 0.18 0.16 0.19 0.31 0.33 0.21 0.20 0.36 0.30 0.32 0.35 0.15 0.08 0.11 0.25 0.19 0.04 0.01 0.00 0.00 0.00 0.00 0.00 0.00 0.00 0.00 0.00 0.00 0.00 0.00 0.00 0.00 0.00 0.00 0.00 0.00 0.00 0.00
0.06 0.05 0.05 0.06 0.09 0.14 0.31 0.52 0.26 0.29 0.36 0.31 0.37 0.37 0.41 0.46 0.42 0.25 0.11 0.16 0.18 0.23 0.14 0.03 0.00 0.00 0.00 0.00 0.00 0.00 0.00 0.00 0.00 0.00 0.00 0.00 0.00 0.00 0.00 0.00 0.00 0.00 0.00 0.00
0.09 0.07 0.07 0.07 0.12 0.10 0.22 0.32 0.14 0.12 0.21 0.39 0.33 0.37 0.52 0.43 0.37 0.34 0.16 0.15 0.09 0.06 0.07 0.02 0.01 0.00 0.00 0.00 0.00 0.00 0.00 0.00 0.00 0.00 0.00 0.00 0.00 0.00 0.00 0.00 0.00 0.00 0.00 0.00
0.11 0.11 0.09 0.14 0.21 0.17 0.12 0.12 0.07 0.02 0.17 0.16 0.27 0.32 0.47 0.33 0.29 0.25 0.09 0.06 0.02 0.00 0.00 0.00 0.00 0.00 0.00 0.00 0.00 0.00 0.00 0.00 0.00 0.00 0.00 0.00 0.00 0.00 0.00 0.00 0.00 0.00 0.00 0.00
0.13 0.16 0.22 0.39 0.31 0.19 0.16 0.21 0.16 0.02 0.13 0.15 0.18 0.20 0.28 0.15 0.07 0.04 0.02 0.00 0.00 0.00 0.00 0.00 0.00 0.00 0.00 0.00 0.00 0.00 0.00 0.00 0.00 0.00 0.00 0.00 0.00 0.00 0.00 0.00 0.00 0.00 0.00 0.00
0.16 0.32 0.47 0.53 0.18 0.12 0.42 0.56 0.43 0.13 0.03 0.03 0.08 0.12 0.08 0.03 0.01 0.00 0.00 0.00 0.00 0.00 0.00 0.00 0.00 0.00 0.00 0.00 0.00 0.00 0.00 0.00 0.00 0.00 0.00 0.00 0.00 0.00 0.00 0.00 0.00 0.00 0.00 0.00
0.12 0.17 0.22 0.10 0.14 0.23 0.45 0.37 0.22 0.09 0.01 0.00 0.01 0.04 0.01 0.00 0.00 0.00 0.00 0.00 0.00 0.00 0.00 0.00 0.00 0.00 0.00 0.00 0.00 0.00 0.00 0.00 0.00 0.00 0.00 0.00 0.00 0.00 0.00 0.00 0.00 0.00 0.00 0.00
0.02 0.10 0.13 0.12 0.20 0.16 0.16 0.09 0.03 0.01 0.00 0.00 0.00 0.00 0.00 0.00 0.00 0.00 0.00 0.00 0.00 0.00 0.00 0.00 0.00 0.00 0.00 0.00 0.00 0.00 0.00 0.00 0.00 0.00 0.00 0.00 0.00 0.00 0.00 0.00 0.00 0.00 0.00 0.00
0.05 0.02 0.03 0.09 0.07 0.01 0.02 0.01 0.00 0.00 0.00 0.00 0.00 0.00 0.00 0.00 0.00 0.00 0.00 0.00 0.00 0.00 0.00 0.00 0.00 0.00 0.00 0.00 0.00 0.00 0.00 0.00 0.00 0.00 0.00 0.00 0.00 0.00 0.00 0.00 0.00 0.00 0.00 0.00
0.02 0.01 0.01 0.00 0.00 0.00 0.00 0.00 0.00 0.00 0.00 0.00 0.00 0.00 0.00 0.00 0.00 0.00 0.00 0.00 0.00 0.00 0.00 0.00 0.00 0.00 0.00 0.00 0.00 0.00 0.00 0.00 0.00 0.00 0.00 0.00 0.00 0.00 0.00 0.00 0.00 0.00 0.00 0.00
0.00 0.00 0.00 0.00 0.00 0.00 0.00 0.00 0.00 0.00 0.00 0.00 0.00 0.00 0.00 0.00 0.00 0.00 0.00 0.00 0.00 0.00 0.00 0.00 0.00 0.00 0.00 0.00 0.00 0.00 0.00 0.00 0.00 0.00 0.00 0.00 0.00 0.00 0.00 0.00 0.00 0.00 0.00 0.00
0.00 0.02 0.04 0.04 0.02 0.01 0.00 0.00 0.00 0.00 0.00 0.00 0.00 0.00 0.00 0.00 0.00 0.00 0.00 0.00 0.00 0.00 0.00 0.00 0.00 0.00 0.00 0.00 0.00 0.00 0.00 0.00 0.00 0.00 0.00 0.00 0.00 0.00 0.00 0.00 0.00 0.00 0.00 0.00
0.01 0.06 0.07 0.05 0.04 0.03 0.00 0.00 0.00 0.00 0.00 0.00 0.00 0.00 0.00 0.00 0.00 0.00 0.00 0.00 0.00 0.00 0.00 0.00 0.00 0.00 0.00 0.00 0.00 0.00 0.00 0.00 0.00 0.00 0.00 0.00 0.00 0.00 0.00 0.00 0.00 0.00 0.00 0.00

GFSNW_prec_precacc12_165.txt.gz
Total_Precipitation_Accumulation
0.07 0.05 0.04 0.07 0.10 0.09 0.22 0.31 0.26 0.02 0.14 0.49 0.55 0.45 0.16 0.08 0.01 0.00 0.01 0.02 0.03 0.03 0.01 0.00 0.00 0.00 0.00 0.00 0.00 0.00 0.00 0.00 0.01 0.00 0.00 0.00 0.00 0.00 0.00 0.00 0.00 0.00 0.00 0.00
0.07 0.08 0.07 0.05 0.14 0.22 0.13 0.42 0.26 0.11 0.22 0.33 0.34 0.09 0.04 0.02 0.00 0.03 0.12 0.08 0.03 0.03 0.04 0.07 0.00 0.00 0.00 0.00 0.00 0.00 0.00 0.02 0.04 0.01 0.00 0.00 0.00 0.00 0.00 0.00 0.00 0.00 0.00 0.00
0.08 0.08 0.09 0.07 0.13 0.33 0.54 0.35 0.32 0.30 0.39 0.18 0.15 0.06 0.04 0.06 0.01 0.00 0.12 0.41 0.19 0.08 0.09 0.08 0.05 0.00 0.00 0.00 0.00 0.00 0.00 0.02 0.03 0.01 0.00 0.00 0.00 0.00 0.00 0.00 0.01 0.00 0.00 0.00
0.09 0.10 0.12 0.10 0.12 0.23 0.52 1.12 0.54 0.12 0.26 0.20 0.05 0.06 0.07 0.03 0.02 0.02 0.03 0.08 0.27 0.45 0.43 0.18 0.13 0.07 0.03 0.01 0.00 0.00 0.02 0.06 0.01 0.00 0.00 0.00 0.00 0.00 0.00 0.00 0.00 0.00 0.00 0.00
0.12 0.15 0.13 0.16 0.16 0.34 0.64 0.92 0.60 0.24 0.03 0.00 0.01 0.03 0.08 0.05 0.01 0.01 0.03 0.05 0.01 0.04 0.36 0.50 0.35 0.20 0.15 0.10 0.05 0.04 0.05 0.11 0.05 0.04 0.01 0.00 0.00 0.00 0.00 0.00 0.00 0.00 0.00 0.00
0.08 0.14 0.23 0.20 0.25 0.51 1.30 0.69 0.34 0.24 0.15 0.02 0.02 0.04 0.02 0.02 0.02 0.06 0.03 0.03 0.05 0.05 0.02 0.02 0.07 0.14 0.16 0.12 0.05 0.06 0.07 0.06 0.04 0.04 0.01 0.01 0.03 0.00 0.00 0.00 0.00 0.00 0.00 0.00
0.08 0.10 0.17 0.27 0.28 0.41 0.65 0.53 0.36 0.49 0.26 0.07 0.02 0.00 0.00 0.00 0.01 0.06 0.12 0.06 0.02 0.03 0.02 0.02 0.02 0.07 0.13 0.11 0.06 0.03 0.02 0.01 0.06 0.08 0.03 0.11 0.03 0.00 0.00 0.00 0.00 0.00 0.00 0.00
0.09 0.10 0.11 0.17 0.26 0.31 0.20 0.21 0.53 0.67 0.47 0.10 0.01 0.00 0.00 0.00 0.05 0.06 0.06 0.16 0.08 0.01 0.04 0.10 0.09 0.09 0.13 0.12 0.06 0.03 0.03 0.02 0.04 0.07 0.05 0.02 0.00 0.00 0.00 0.00 0.00 0.00 0.00 0.00
0.08 0.10 0.11 0.13 0.16 0.27 0.21 0.12 0.13 0.60 0.71 0.41 0.14 0.06 0.02 0.01 0.03 0.06 0.03 0.04 0.16 0.10 0.10 0.13 0.14 0.09 0.04 0.02 0.02 0.01 0.05 0.10 0.11 0.10 0.04 0.01 0.00 0.00 0.00 0.00 0.00 0.00 0.00 0.00
0.05 0.08 0.10 0.12 0.13 0.26 0.26 0.15 0.08 0.24 0.55 0.27 0.36 0.32 0.12 0.04 0.03 0.03 0.03 0.02 0.10 0.20 0.33 0.32 0.15 0.05 0.01 0.01 0.00 0.00 0.03 0.10 0.16 0.08 0.04 0.01 0.00 0.00 0.00 0.00 0.00 0.00 0.00 0.00
0.05 0.09 0.10 0.09 0.13 0.23 0.33 0.16 0.09 0.17 0.31 0.17 0.47 0.54 0.27 0.19 0.16 0.11 0.08 0.16 0.17 0.23 0.27 0.24 0.18 0.08 0.01 0.00 0.00 0.00 0.00 0.01 0.04 0.06 0.11 0.02 0.00 0.00 0.00 0.00 0.00 0.00 0.00 0.00
0.01 0.03 0.07 0.07 0.11 0.19 0.33 0.23 0.08 0.16 0.29 0.12 0.17 0.37 0.26 0.26 0.23 0.23 0.20 0.19 0.05 0.04 0.06 0.05 0.02 0.05 0.05 0.02 0.00 0.00 0.00 0.01 0.00 0.01 0.01 0.00 0.00 0.00 0.00 0.00 0.00 0.00 0.00 0.00
0.05 0.01 0.01 0.04 0.07 0.13 0.23 0.21 0.14 0.16 0.22 0.25 0.26 0.23 0.25 0.15 0.13 0.18 0.38 0.17 0.05 0.04 0.04 0.04 0.04 0.02 0.00 0.02 0.02 0.00 0.00 0.00 0.01 0.01 0.00 0.00 0.00 0.00 0.00 0.00 0.00 0.00 0.00 0.00
0.06 0.03 0.00 0.01 0.05 0.10 0.15 0.17 0.21 0.22 0.20 0.32 0.36 0.31 0.29 0.20 0.16 0.11 0.15 0.11 0.12 0.08 0.06 0.08 0.05 0.01 0.00 0.00 0.00 0.00 0.00 0.00 0.00 0.00 0.00 0.00 0.00 0.00 0.00 0.00 0.00 0.00 0.00 0.00
0.05 0.04 0.02 0.00 0.03 0.10 0.13 0.11 0.16 0.26 0.34 0.27 0.17 0.33 0.29 0.32 0.35 0.15 0.09 0.12 0.27 0.37 0.19 0.10 0.04 0.01 0.00 0.00 0.00 0.00 0.00 0.00 0.00 0.00 0.00 0.00 0.00 0.00 0.00 0.00 0.00 0.00 0.00 0.00
0.05 0.04 0.05 0.05 0.05 0.12 0.21 0.32 0.10 0.18 0.36 0.34 0.28 0.31 0.40 0.46 0.42 0.26 0.12 0.18 0.28 0.49 0.37 0.14 0.02 0.00 0.00 0.01 0.00 0.00 0.00 0.00 0.00 0.00 0.00 0.00 0.00 0.00 0.00 0.00 0.00 0.00 0.00 0.00
0.08 0.05 0.07 0.07 0.12 0.08 0.15 0.23 0.11 0.11 0.30 0.66 0.38 0.35 0.51 0.43 0.38 0.35 0.19 0.23 0.22 0.29 0.39 0.22 0.05 0.00 0.00 0.00 0.00 0.00 0.00 0.00 0.00 0.00 0.00 0.00 0.00 0.00 0.00 0.00 0.00 0.00 0.00 0.00
0.08 0.08 0.09 0.12 0.19 0.13 0.09 0.14 0.12 0.09 0.23 0.28 0.32 0.30 0.48 0.37 0.36 0.37 0.25 0.27 0.21 0.19 0.19 0.15 0.09 0.07 0.03 0.01 0.00 0.00 0.00 0.00 0.00 0.00 0.00 0.00 0.00 0.00 0.00 0.00 0.00 0.00 0.00 0.00
0.12 0.17 0.25 0.33 0.23 0.12 0.10 0.20 0.27 0.12 0.18 0.18 0.19 0.20 0.36 0.36 0.28 0.24 0.19 0.11 0.08 0.05 0.03 0.02 0.03 0.06 0.03 0.00 0.00 0.00 0.00 0.00 0.00 0.00 0.00 0.00 0.00 0.00 0.00 0.00 0.00 0.00 0.00 0.00
0.24 0.54 0.54 0.37 0.10 0.10 0.40 0.70 0.87 0.31 0.09 0.06 0.12 0.21 0.23 0.27 0.15 0.08 0.04 0.01 0.01 0.01 0.00 0.00 0.00 0.00 0.00 0.00 0.00 0.00 0.00 0.00 0.00 0.00 0.00 0.00 0.00 0.00 0.00 0.00 0.00 0.00 0.00 0.00
0.34 0.36 0.23 0.10 0.13 0.24 0.45 0.45 0.37 0.23 0.05 0.01 0.02 0.14 0.16 0.11 0.04 0.01 0.01 0.00 0.00 0.00 0.00 0.00 0.00 0.00 0.00 0.00 0.00 0.00 0.00 0.00 0.00 0.00 0.00 0.00 0.00 0.00 0.00 0.00 0.00 0.00 0.00 0.00
0.05 0.11 0.15 0.14 0.22 0.17 0.17 0.10 0.05 0.03 0.01 0.00 0.00 0.04 0.06 0.01 0.00 0.00 0.00 0.00 0.00 0.00 0.00 0.00 0.00 0.00 0.00 0.00 0.00 0.00 0.00 0.00 0.00 0.00 0.00 0.00 0.00 0.00 0.00 0.00 0.00 0.00 0.00 0.00
0.06 0.04 0.04 0.10 0.09 0.03 0.03 0.01 0.01 0.00 0.00 0.00 0.00 0.00 0.00 0.00 0.00 0.00 0.00 0.00 0.00 0.00 0.00 0.00 0.00 0.00 0.00 0.00 0.00 0.00 0.00 0.00 0.00 0.00 0.00 0.00 0.00 0.00 0.00 0.00 0.00 0.00 0.00 0.00
0.04 0.03 0.01 0.03 0.00 0.00 0.00 0.00 0.00 0.00 0.00 0.00 0.00 0.00 0.00 0.00 0.00 0.00 0.00 0.00 0.00 0.00 0.00 0.00 0.00 0.00 0.00 0.00 0.00 0.00 0.00 0.00 0.00 0.00 0.00 0.00 0.00 0.00 0.00 0.00 0.00 0.00 0.00 0.00
0.01 0.01 0.00 0.00 0.00 0.00 0.00 0.00 0.00 0.00 0.00 0.00 0.00 0.00 0.00 0.00 0.00 0.00 0.00 0.00 0.00 0.00 0.00 0.00 0.00 0.00 0.00 0.00 0.00 0.00 0.00 0.00 0.00 0.00 0.00 0.00 0.00 0.00 0.00 0.00 0.00 0.00 0.00 0.00
0.00 0.02 0.03 0.03 0.01 0.00 0.00 0.00 0.00 0.00 0.00 0.00 0.00 0.00 0.00 0.00 0.00 0.00 0.00 0.00 0.00 0.00 0.00 0.00 0.00 0.00 0.00 0.00 0.00 0.00 0.00 0.00 0.00 0.00 0.00 0.00 0.00 0.00 0.00 0.00 0.00 0.00 0.00 0.00
0.01 0.05 0.05 0.03 0.02 0.01 0.00 0.00 0.00 0.00 0.00 0.00 0.00 0.00 0.00 0.00 0.00 0.00 0.00 0.00 0.00 0.00 0.00 0.00 0.00 0.00 0.00 0.00 0.00 0.00 0.00 0.00 0.00 0.00 0.00 0.00 0.00 0.00 0.00 0.00 0.00 0.00 0.00 0.00